Hourly Data Report for August 09, 2019

QUALICUM BEACH AIRPORT
BRITISH COLUMBIA
Current Station Operator: ECCC - MSC

49°20'14.000" N
124°23'38.000" W
58.20 m
1026562
71766
VOQ

Download Data

Hourly Data (August 2019)
Hourly Data Report for August 9, 2019
TIME
LST
Temp Definition
°C
Dew Point Definition
°C
Rel Hum Definition
%
Precip. Amount Definition
mm

Wind Dir Definition
10's deg

Wind Spd Definition
km/h
Visibility Definition
km
Stn Press Definition
kPa
Hmdx Definition


Wind Chill Definition


Weather Definition


00:00 14.6 12.9 90 0.0 0 1   100.70     LegendNANA
01:00 14.6 12.8 89 0.0   0   100.70     LegendNANA
02:00 14.8 12.8 88 0.0 29 3   100.70     LegendNANA
03:00 16.2 13.2 83 0.0 27 5   100.70     LegendNANA
04:00 16.1 13.4 84 0.0 26 3   100.68     LegendNANA
05:00 15.7 13.7 88 0.0 0 1   100.71     LegendNANA
06:00 16.2 13.8 85 0.0 0 1   100.72     LegendNANA
07:00 16.9 13.9 83 0.0 14 3   100.74     LegendNANA
08:00 17.6 14.0 80 0.0 24 2   100.76     LegendNANA
09:00 18.0 14.1 78 0.0 1 2   100.77     LegendNANA
10:00 17.7 13.8 78 0.0 7 4   100.78     LegendNANA
11:00 18.0 14.0 78 0.0 3 4   100.78     LegendNANA
12:00 19.1 14.4 74 0.0 8 4   100.76     LegendNANA
13:00 19.7 13.8 68 0.0 5 5   100.72     LegendNANA
14:00 20.2 13.6 66 0.0 5 6   100.71     LegendNANA
15:00 19.9 13.6 67 0.0 9 8   100.71     LegendNANA
16:00 19.6 13.0 65 0.0 10 7   100.69     LegendNANA
17:00 19.7 13.1 66 0.0 9 3   100.67     LegendNANA
18:00 19.2 13.4 69 0.0 10 6   100.63     LegendNANA
19:00 18.9 13.3 70 0.0 10 3   100.62     LegendNANA
20:00 18.9 13.6 71 0.0   0   100.61     LegendNANA
21:00 18.4 13.9 75 0.0 24 3   100.61     LegendNANA
22:00 18.6 13.8 74 0.0 24 3   100.62     LegendNANA
23:00 18.2 14.2 78 0.0 28 2   100.64     LegendNANA

Notes on Data Quality.

Legend

  • E = Estimated
  • M = Missing
  • NA = Not Available*
  • [empty] = Indicates an unobserved value
Date modified: